TimeMST,TemperatureF,Dew PointF,Humidity,Sea Level PressureIn,VisibilityMPH,Wind Direction,Wind SpeedMPH,Gust SpeedMPH,PrecipitationIn,Events,Conditions,WindDirDegrees,DateUTC
12:53 AM,52.0,26.1,37,29.74,10.0,SW,27.6,39.1,N/A,,Clear,230,2012-11-30 07:53:00
1:53 AM,51.1,27.0,39,29.74,10.0,SW,26.5,41.4,N/A,,Clear,220,2012-11-30 08:53:00
2:53 AM,52.0,27.0,38,29.75,10.0,SW,23.0,35.7,N/A,,Clear,230,2012-11-30 09:53:00
3:53 AM,51.1,27.0,39,29.73,10.0,WSW,19.6,31.1,N/A,,Clear,250,2012-11-30 10:53:00
4:53 AM,50.0,27.0,41,29.72,10.0,West,16.1,28.8,N/A,,Scattered Clouds,260,2012-11-30 11:53:00
5:53 AM,51.1,28.0,41,29.68,10.0,SW,24.2,33.4,N/A,,Clear,220,2012-11-30 12:53:00
6:53 AM,52.0,28.0,40,29.68,10.0,SW,24.2,33.4,N/A,,Clear,230,2012-11-30 13:53:00
7:53 AM,52.0,28.9,41,29.65,10.0,SW,26.5,36.8,N/A,,Clear,230,2012-11-30 14:53:00
8:53 AM,52.0,30.0,43,29.65,10.0,SW,24.2,32.2,N/A,,Clear,230,2012-11-30 15:53:00
9:53 AM,55.0,30.9,40,29.60,10.0,SSW,25.3,39.1,N/A,,Clear,210,2012-11-30 16:53:00
10:53 AM,55.9,30.0,37,29.58,10.0,SW,27.6,39.1,N/A,,Clear,230,2012-11-30 17:53:00
11:53 AM,55.0,30.0,38,29.55,10.0,WSW,29.9,43.7,N/A,,Clear,240,2012-11-30 18:53:00
12:53 PM,55.0,30.0,38,29.53,10.0,WSW,38.0,48.3,N/A,,Overcast,240,2012-11-30 19:53:00
1:53 PM,54.0,30.0,40,29.56,10.0,WSW,35.7,44.9,N/A,,Overcast,240,2012-11-30 20:53:00
2:53 PM,53.1,30.9,43,29.57,10.0,SW,26.5,39.1,N/A,,Overcast,220,2012-11-30 21:53:00
3:53 PM,51.1,32.0,48,29.58,10.0,SSW,24.2,38.0,N/A,,Overcast,210,2012-11-30 22:53:00
4:53 PM,52.0,30.0,43,29.59,10.0,SW,34.5,43.7,N/A,,Overcast,220,2012-11-30 23:53:00
5:53 PM,52.0,30.9,45,29.61,10.0,SW,28.8,40.3,N/A,,Overcast,230,2012-12-01 00:53:00
6:53 PM,51.1,32.0,48,29.64,10.0,West,16.1,28.8,N/A,,Overcast,270,2012-12-01 01:53:00
9:53 PM,43.0,35.1,74,29.68,10.0,NW,6.9,-,N/A,,Partly Cloudy,310,2012-12-01 04:53:00
10:53 PM,44.1,34.0,68,29.67,10.0,West,9.2,-,N/A,,Mostly Cloudy,270,2012-12-01 05:53:00
11:53 PM,43.0,33.1,68,29.69,10.0,NNW,10.4,-,N/A,,Mostly Cloudy,340,2012-12-01 06:53:00